Погода в Дджербе-Хумете-Суке

Тунис     33°52′20″N   10°51′25″E
темп.,
°C
ветер,
м/с
пор.,
м/с
влажн.,
%
обл.,
%
осадки,
мм/ч
давл.,
гПа
погр.,
м
25 июля, вс
вс2501:00+27юв68700 0.0 1014266
04:00+27юв56680 0.0 1013193
07:00+28ююв34600 0.0 1013237
10:00+30ююв33410 0.0 1014300
13:00+34всв22310 0.0 1012788
16:00+35вюв55370 0.0 1011832
19:00+30вюв811540 0.0 1011208
22:00+28юв813660 0.0 1012277
26 июля, пн
пн2601:00+28юв610680 0.0 1013273
04:00+27юв57730 0.0 1011190
07:00+28ююв56530 0.0 1013200
10:00+32ююв34350 0.0 1013326
13:00+35в34330 0.0 1012865
16:00+33в910440 0.0 1011387
19:00+29в1014580 0.0 1012319
22:00+27вюв914740 0.0 1013394
27 июля, вт
вт2701:00+27вюв711710 0.0 1013368
04:00+27вюв811690 0.0 1013321
07:00+28юв68630 0.0 1014363
10:00+31вюв56490 0.0 1015496
13:00+32в76470 0.0 1014685
16:00+31в89480 0.0 1013538
19:00+28в811620 0.0 1013387
22:00+27в813700 0.0 1014473
28 июля, ср
ср2801:00+27вюв812710 0.0 1015458
04:00+26вюв79680 0.0 1014346
07:00+27вюв68620 0.0 1015530
10:00+30вюв66490 0.0 1015691
13:00+31в66440 0.0 1015766
16:00+31в66470 0.0 1014578
19:00+28в66580 0.0 1014340
22:00+26в56680 0.0 1015275
29 июля, чт
чт2901:00+26вюв45680 0.0 1014242
04:00+26вюв44700 0.0 1014224
07:00+27юв45670 0.0 1015307
10:00+31юв34480 0.0 1015476
13:00+33в33410 0.0 1014691
16:00+33в55410 0.0 1013484
19:00+30в68520 0.0 1013156
22:00+28юв69660 0.0 1014180